GFSGL_2pvu_pres_000.txt.gz
Presure
191 200 196 202 192 212 225 240 241 238 252 277 358 360 354 349 325 308 289 334 448 434 428 417 412 407 403 399 399 400 396 418 427 420 395 411 441 457 418 318 322 350 345
192 203 190 209 224 238 228 246 240 275 258 285 280 285 278 307 307 445 439 430 423 416 411 404 399 395 391 387 387 387 386 392 395 408 413 387 402 403 406 421 404 315 333
204 211 213 221 227 241 241 264 292 283 294 257 270 324 358 443 430 420 414 412 408 401 397 392 387 383 382 385 382 378 377 380 389 393 389 394 389 373 380 408 413 421 444
215 213 227 230 238 258 321 303 317 293 309 320 358 441 430 419 406 409 400 389 385 374 366 365 365 363 361 363 372 374 369 365 369 390 386 387 388 392 393 390 405 409 408
217 236 242 254 285 328 326 319 317 319 351 450 428 410 403 397 406 393 375 368 366 362 358 357 356 355 356 359 360 370 366 362 361 369 380 376 382 387 392 396 403 408 408
238 252 269 267 359 349 345 338 349 451 429 413 405 408 397 398 386 367 356 354 353 352 375 380 466 380 339 340 354 360 363 356 354 356 368 368 368 367 374 374 380 386 398
264 258 328 347 339 334 333 443 436 438 479 450 420 397 389 375 363 351 345 351 365 408 418 417 425 439 456 470 335 353 362 353 349 351 359 363 355 356 360 358 355 361 369
281 288 348 341 334 370 434 439 497 475 445 414 395 384 365 351 349 345 359 368 409 401 416 428 433 439 439 444 394 339 363 352 347 351 360 365 365 361 361 359 360 362 364
286 345 339 322 427 432 455 441 404 409 410 391 375 359 346 340 339 351 364 402 413 434 437 440 452 466 472 456 342 331 377 355 343 355 361 356 354 350 351 353 351 354 352
310 344 337 442 479 446 417 416 433 406 385 365 350 337 338 335 348 356 399 435 432 428 434 441 449 475 458 453 465 318 356 358 347 358 350 343 339 334 328 326 324 341 352
347 352 464 468 467 463 463 429 400 380 360 346 334 334 331 344 341 392 432 416 429 435 448 460 463 462 462 465 478 324 364 356 361 343 333 324 309 301 297 300 309 323 323
334 464 518 496 482 469 420 393 376 358 343 332 327 331 322 338 357 423 409 408 407 411 420 433 449 467 482 471 319 361 361 353 336 321 304 298 302 299 291 290 296 299 300
452 448 420 463 430 398 390 373 355 343 333 327 330 318 334 332 383 406 398 395 395 399 406 417 431 444 334 348 364 361 341 338 316 302 299 290 286 291 302 304 305 303 319
446 413 392 382 392 389 372 353 346 332 328 324 326 307 334 328 384 399 391 384 384 388 394 383 328 331 349 356 359 339 335 309 295 293 289 287 290 292 297 293 302 292 301
424 393 383 367 370 367 358 342 333 324 326 328 317 313 333 325 382 396 382 377 370 365 342 321 316 340 347 347 337 321 289 290 294 286 287 287 283 286 286 288 289 290 292
403 373 362 360 369 359 349 335 326 323 324 328 307 340 329 324 379 395 381 368 355 344 323 313 310 326 321 301 307 287 296 294 285 287 287 283 284 280 281 277 288 284 288
380 359 348 364 371 357 339 326 321 326 318 317 305 338 322 328 337 398 379 365 349 337 318 309 304 302 303 294 303 292 295 283 286 284 285 287 279 284 279 280 287 287 277
361 349 360 352 358 349 329 325 325 326 319 303 325 336 314 328 325 389 381 365 346 333 319 306 302 299 298 312 292 296 289 278 283 285 279 286 276 277 277 278 279 284 282
345 341 351 349 345 334 330 325 331 319 305 318 329 350 311 322 327 349 391 369 353 335 320 309 302 295 293 309 304 292 296 287 278 283 278 278 283 277 278 278 284 291 277
323 337 350 347 339 333 328 332 326 305 312 316 306 336 311 321 330 328 378 378 360 347 326 315 303 295 295 298 307 297 286 290 275 291 278 275 279 273 278 277 278 281 278
341 339 347 351 338 334 334 321 306 314 318 306 306 293 321 328 328 328 325 379 369 355 345 322 312 298 296 295 301 304 281 297 290 273 289 280 272 276 273 275 275 272 280
348 344 347 355 344 334 315 312 319 312 310 314 301 313 327 330 330 328 323 341 377 366 353 342 327 311 300 296 291 304 294 282 288 293 277 285 285 277 275 274 276 275 277
352 347 349 333 315 309 317 316 301 317 315 313 317 327 329 331 332 330 323 325 387 381 364 352 341 333 313 310 298 296 300 289 282 277 291 279 279 286 285 284 281 283 281
358 348 317 307 312 320 292 306 309 306 317 320 321 324 329 334 335 335 332 329 332 427 373 367 351 342 334 326 313 303 299 296 296 289 280 280 287 275 276 284 280 278 279
354 304 309 316 296 292 305 297 307 306 324 323 326 329 331 334 337 338 338 337 340 345 423 367 376 354 340 336 330 319 308 304 301 289 292 292 289 284 289 288 288 287 288
304 317 317 290 294 297 300 304 313 316 319 324 325 329 333 336 344 346 350 353 353 355 379 411 368 369 358 344 336 331 328 320 307 300 304 299 292 289 288 285 285 286 287

GFSGL_2pvu_pres_003.txt.gz
Presure
182 95 185 201 199 209 209 228 225 239 254 288 294 283 357 346 342 339 416 440 430 420 414 419 414 413 410 409 407 404 401 399 410 400 394 435 436 419 416 436 448 345 322
196 192 200 199 212 213 223 240 253 253 291 301 353 348 337 457 449 430 417 404 399 397 398 401 397 392 387 382 378 386 394 399 408 397 391 390 403 415 404 403 429 434 427
193 203 201 211 214 236 255 254 282 330 378 353 351 459 443 445 445 429 416 402 398 400 389 377 369 368 365 364 364 361 361 364 376 399 385 378 388 394 405 410 397 412 428
204 197 205 228 250 257 259 329 356 357 343 453 444 486 473 465 441 419 405 395 387 375 367 362 356 355 354 353 353 356 358 359 359 366 380 372 371 381 385 401 404 381 407
204 214 249 246 247 265 287 375 353 336 440 444 438 415 414 423 406 395 385 370 364 356 353 355 357 366 417 419 425 436 369 346 350 356 367 366 358 366 381 385 389 399 387
236 239 247 245 253 305 367 347 365 437 473 424 417 399 412 403 394 371 355 349 351 353 359 367 416 414 413 414 421 438 448 439 344 354 362 361 356 364 378 380 385 390 393
230 245 249 251 307 354 338 484 432 441 449 423 425 403 393 379 361 346 345 345 354 360 423 447 445 446 445 445 442 434 440 452 339 349 358 359 352 356 372 369 376 384 391
249 242 251 296 344 348 446 465 477 466 437 433 399 384 368 351 343 344 345 352 370 429 428 440 447 450 438 436 443 454 440 441 341 352 359 355 350 355 363 362 361 360 370
252 249 296 327 351 456 496 482 468 461 427 396 377 358 343 340 340 331 347 354 414 413 415 424 444 463 458 453 470 483 462 451 339 358 364 351 352 356 362 360 353 356 353
251 276 318 356 460 447 466 473 471 414 389 374 351 337 339 338 330 346 339 412 405 402 404 411 422 450 470 459 463 463 455 305 344 366 353 352 362 366 362 348 350 343 343
280 320 358 387 448 427 410 398 407 386 366 344 333 335 335 332 313 342 352 408 396 395 399 408 424 436 453 480 473 461 468 310 367 357 363 366 351 342 337 332 328 325 322
312 351 395 452 427 402 383 368 383 368 352 333 329 332 337 318 345 336 396 399 388 390 395 416 431 448 459 466 474 350 314 368 354 367 351 340 329 317 312 305 304 302 307
347 355 463 437 405 376 352 367 372 358 339 329 328 328 328 312 336 334 395 391 383 381 387 370 367 349 334 331 334 354 358 367 348 343 322 306 303 296 298 293 291 293 302
362 467 447 415 378 359 373 372 365 348 331 327 333 327 308 353 326 335 386 388 374 372 353 332 323 331 345 350 347 353 338 339 319 305 300 302 293 288 292 294 294 298 296
468 449 429 383 354 344 366 364 355 334 327 329 330 319 320 352 321 336 346 386 368 356 338 322 318 344 345 342 340 326 334 310 299 288 300 281 286 290 287 285 288 287 287
455 424 388 362 335 336 357 352 342 331 325 334 323 310 328 355 327 325 331 393 369 352 336 318 312 338 343 334 329 331 303 288 279 300 286 284 288 281 279 286 285 277 287
419 397 360 338 326 347 350 347 334 334 330 325 308 316 324 321 318 323 337 398 372 353 341 318 308 326 329 321 327 298 280 282 297 287 284 284 282 277 280 280 283 280 283
380 362 347 336 346 350 355 345 338 336 322 308 310 319 322 315 304 334 333 328 383 363 344 324 307 303 300 322 291 298 298 283 288 280 279 282 284 279 280 278 279 281 278
395 367 355 351 350 352 359 345 337 319 315 319 312 317 325 309 330 333 333 336 376 374 352 333 316 304 296 296 303 294 292 290 288 281 278 285 283 278 280 275 274 280 277
360 389 367 359 351 353 330 319 316 325 311 305 325 320 321 327 336 337 335 332 328 391 367 346 325 310 300 295 293 281 280 290 286 283 291 275 286 278 278 282 276 276 282
353 393 378 360 352 319 307 320 317 294 312 310 321 329 334 334 333 336 341 343 331 324 389 366 346 323 310 301 295 292 291 280 300 285 284 283 280 286 279 273 277 277 275
352 392 377 362 305 311 321 297 299 304 302 315 325 324 329 335 337 340 342 343 339 327 325 392 367 352 328 312 307 297 297 290 282 299 276 284 285 275 286 285 279 275 276
352 388 348 304 310 320 294 293 297 304 314 319 321 322 324 326 332 340 347 351 341 336 329 329 406 370 352 341 324 312 305 299 296 291 301 281 280 296 282 278 284 285 284
358 333 313 317 318 296 291 292 304 305 312 318 322 325 328 332 337 344 356 356 353 351 348 342 337 406 378 354 349 336 324 314 308 295 298 302 293 287 281 298 285 274 279
342 325 305 314 300 293 292 303 295 300 311 314 317 322 327 332 337 346 350 355 357 360 361 358 354 348 407 386 357 349 337 334 320 314 307 300 301 300 295 291 281 282 289
332 297 319 302 291 295 298 297 297 295 299 305 311 316 322 334 340 348 351 357 360 366 368 367 358 358 361 411 381 365 351 342 335 329 320 315 307 305 305 301 298 297 297

GFSGL_2pvu_pres_006.txt.gz
Presure
191 189 184 197 202 203 206 216 217 241 256 264 284 262 313 367 373 449 445 454 481 466 446 432 421 413 404 399 401 400 399 398 412 423 418 403 408 416 419 438 458 465 495
182 192 194 200 204 206 215 229 247 257 269 260 308 311 363 440 431 436 445 427 415 420 414 408 398 391 387 383 379 373 370 371 382 390 393 400 394 394 399 405 435 456 440
198 203 204 200 204 222 235 255 253 274 256 311 362 371 456 427 415 427 430 408 400 394 388 379 371 364 358 355 355 355 352 352 355 361 363 366 386 387 392 391 394 435 422
202 201 203 209 227 237 255 256 273 277 322 367 436 429 431 429 447 452 407 392 378 364 354 351 352 354 356 358 356 354 355 355 354 350 349 353 354 374 384 386 388 388 420
203 197 221 229 246 256 264 270 277 328 365 465 459 455 437 469 444 408 384 360 348 344 347 350 352 358 366 432 448 438 416 417 427 381 361 348 358 356 378 386 383 386 402
185 227 235 250 253 266 269 309 392 377 465 487 469 458 470 426 398 372 350 344 342 346 343 353 395 432 435 447 456 449 449 437 416 413 426 375 346 354 362 379 383 372 388
233 242 243 253 268 266 281 399 479 467 448 490 477 447 408 386 362 345 342 340 338 355 351 427 415 414 419 430 462 468 449 443 446 437 436 449 344 351 357 374 375 370 379
231 248 250 259 265 278 364 483 464 445 420 405 423 395 373 354 341 339 345 336 356 347 417 408 405 409 416 433 461 466 462 444 447 457 444 455 339 351 356 373 363 365 376
249 249 252 264 272 368 484 467 441 411 390 381 386 370 353 340 339 342 334 349 343 383 401 399 409 420 428 441 458 458 467 473 466 474 445 464 338 349 369 363 357 370 364
253 254 264 268 337 482 472 446 412 381 358 382 367 354 337 334 339 334 324 341 339 402 393 396 398 429 443 455 462 481 455 472 479 470 460 336 344 358 359 352 360 359 352
259 255 302 339 488 477 456 419 380 363 385 375 354 339 332 341 336 319 358 341 342 396 385 375 372 400 440 458 473 469 465 459 464 415 332 353 360 352 354 359 357 354 353
265 301 333 466 481 461 424 379 353 339 381 363 344 333 334 340 322 330 361 340 344 394 377 360 350 350 381 397 402 399 392 331 312 363 364 354 358 364 363 352 340 338 339
297 324 397 479 463 415 378 359 345 346 364 353 335 331 335 332 318 325 362 331 344 393 369 342 328 323 326 330 324 324 359 357 348 354 365 358 344 339 334 322 316 311 308
318 346 477 471 401 379 359 348 347 354 358 346 339 333 336 314 322 318 322 331 344 397 368 335 321 322 341 337 347 350 356 362 354 343 341 334 320 318 307 305 303 298 292
344 438 469 434 388 370 355 350 353 357 352 338 332 336 318 322 321 326 312 316 341 377 374 339 318 322 335 332 339 336 332 335 337 329 318 310 303 298 296 292 296 297 296
435 464 444 380 366 371 357 353 354 361 350 339 327 320 323 314 328 329 325 343 341 339 381 350 317 309 332 334 329 325 330 321 310 302 295 299 282 285 288 296 290 289 291
431 446 402 374 360 380 364 355 359 366 324 323 326 305 316 326 322 330 338 339 336 337 384 363 324 306 328 332 324 324 316 301 288 277 294 274 281 284 290 286 278 287 287
437 424 388 370 366 379 364 357 349 320 326 310 305 313 309 330 336 339 338 342 343 338 333 378 345 312 305 323 320 321 302 289 285 280 300 279 278 286 285 276 284 284 285
441 410 373 367 351 382 364 358 308 324 297 306 304 310 321 328 329 335 340 341 342 344 336 339 373 330 307 300 303 304 281 295 285 287 285 279 280 278 278 278 280 281 281
431 396 363 364 349 381 324 306 325 300 295 299 312 319 320 323 323 327 332 338 347 347 341 329 368 366 324 308 296 294 306 280 283 286 282 288 269 271 283 284 276 283 278
420 380 353 363 348 335 314 305 302 293 298 306 310 316 317 322 329 332 336 343 351 355 351 343 324 377 366 325 309 298 292 288 302 279 283 283 281 286 285 275 284 277 280
408 369 348 361 338 315 311 319 295 292 302 300 301 306 309 314 318 326 338 340 351 362 359 351 340 328 377 372 333 312 302 296 288 280 302 279 277 284 277 287 276 282 283
394 358 338 353 331 314 308 298 291 301 299 294 297 299 303 305 310 317 329 355 357 353 359 359 356 350 339 338 382 353 323 308 299 297 294 287 280 298 280 275 276 281 276
381 349 332 345 325 312 321 291 296 296 290 288 292 294 297 300 306 313 320 371 366 365 365 365 365 367 363 355 333 392 367 336 322 311 297 302 300 295 287 296 280 280 280
353 343 331 346 319 314 303 293 292 289 287 285 289 291 295 296 299 307 319 333 376 367 378 377 372 375 373 380 366 353 381 384 355 332 330 311 305 296 303 299 299 296 291
348 341 331 340 314 316 293 297 288 284 285 284 288 288 290 295 297 304 314 328 382 377 380 370 371 386 376 370 371 366 365 370 407 365 349 335 333 317 313 312 304 302 302

GFSGL_2pvu_pres_009.txt.gz
Presure
193 189 182 186 191 198 205 209 205 223 240 250 273 270 268 271 331 446 441 436 443 430 440 462 436 412 395 387 383 384 386 391 406 413 402 396 406 409 419 426 437 441 452
184 184 192 196 199 204 216 230 246 239 265 267 272 265 279 361 460 446 457 431 433 436 440 416 391 372 359 354 353 354 356 359 367 375 374 371 377 385 397 414 420 425 425
190 195 198 201 215 218 233 243 253 266 266 256 267 358 480 471 459 470 453 441 453 413 389 367 355 351 351 352 352 353 354 355 356 368 360 354 365 367 369 386 404 415 418
196 206 209 216 225 224 235 249 267 265 248 302 418 490 474 455 486 477 461 414 391 363 352 352 354 353 351 360 362 396 438 446 454 411 370 361 359 357 359 365 383 404 410
209 216 223 222 227 234 246 262 263 253 351 449 495 474 457 407 442 413 392 366 349 350 350 351 341 358 356 420 415 414 419 426 436 461 447 429 363 359 358 354 365 380 403
224 222 219 231 236 237 261 259 253 290 448 492 470 444 394 374 391 373 356 345 347 350 343 356 352 356 408 403 407 420 428 429 435 465 459 444 426 421 367 363 354 365 369
215 230 228 238 233 258 263 255 279 432 487 472 441 388 370 387 373 353 341 340 344 340 362 350 349 404 395 401 435 440 441 437 460 475 467 445 440 418 423 383 357 356 363
223 223 233 229 260 268 261 284 427 490 473 441 387 365 354 370 359 341 336 344 338 350 352 344 411 386 373 389 442 460 456 454 468 461 469 440 444 436 419 430 373 346 356
223 233 239 260 265 268 269 428 447 475 445 385 355 340 375 362 349 338 344 331 327 363 340 346 399 369 367 380 432 465 466 469 451 476 454 440 445 450 438 438 398 346 350
230 245 228 263 259 302 431 435 478 436 383 364 351 362 369 357 345 339 341 317 329 358 332 360 384 354 344 367 380 460 469 465 452 465 489 486 467 452 448 462 345 345 352
240 259 265 245 313 427 442 454 457 391 375 358 359 364 363 347 341 346 322 329 325 317 346 398 375 339 325 325 333 342 431 480 470 462 458 454 409 336 336 344 353 363 355
256 268 248 313 353 447 442 475 403 379 366 358 361 365 349 346 346 327 329 327 334 312 352 398 370 334 325 339 341 348 325 324 323 320 318 334 345 351 363 364 356 354 360
266 250 315 319 445 431 448 405 374 368 361 360 368 361 350 345 327 327 322 338 330 336 353 360 370 329 321 336 336 340 338 344 350 355 356 357 359 359 354 353 359 368 341
318 303 312 357 435 438 430 385 365 376 366 360 370 351 332 330 314 326 328 325 335 345 343 337 377 328 320 333 333 346 349 351 352 356 359 362 362 349 339 341 343 332 321
294 310 355 439 436 440 404 373 369 379 361 369 326 332 319 313 319 319 337 342 341 340 342 339 388 334 318 328 330 336 333 329 328 328 332 334 335 330 319 312 311 305 301
304 313 441 452 445 424 388 365 354 376 363 324 329 314 308 311 327 328 332 336 345 345 349 351 358 358 319 325 328 327 321 327 330 331 322 312 307 310 297 294 297 295 295
312 328 413 386 438 409 374 360 354 373 334 310 314 303 315 324 327 332 334 336 337 339 345 345 335 384 327 316 330 324 320 323 317 311 297 300 296 288 287 295 295 295 291
333 414 392 365 429 397 365 358 357 366 312 321 299 298 317 319 320 321 324 334 339 345 349 350 351 331 369 318 315 324 318 315 294 296 280 286 289 276 277 287 293 289 281
415 392 380 353 419 385 359 356 347 321 310 305 295 306 306 302 306 309 312 321 332 349 351 355 351 350 386 351 315 308 320 317 303 282 288 272 286 277 278 282 287 282 277
386 371 430 427 407 368 352 357 331 312 318 299 294 304 295 298 299 300 306 309 320 342 364 358 366 348 342 385 345 312 306 318 281 301 277 283 268 276 276 281 281 281 281
367 360 430 420 395 357 342 348 324 309 317 293 296 295 292 290 294 298 297 300 307 322 370 374 360 367 342 341 383 348 315 302 320 285 282 281 277 277 289 273 273 273 279
366 434 415 411 384 348 340 338 321 311 312 294 295 290 289 288 289 290 293 297 305 310 329 382 378 364 366 349 345 355 357 320 306 296 307 281 282 282 272 279 281 281 282
403 411 399 406 366 343 333 339 319 314 308 298 292 288 286 290 286 287 292 295 302 308 313 371 383 381 379 370 365 356 327 376 340 316 304 296 297 284 283 281 280 279 278
414 399 401 401 350 341 330 347 319 314 299 299 291 287 282 283 286 284 288 294 299 307 312 330 392 392 392 372 381 380 369 347 357 369 336 315 306 299 292 282 281 288 281
403 393 399 391 348 341 332 330 321 308 317 294 299 287 286 278 282 283 287 293 297 306 310 323 375 395 389 370 391 398 378 380 374 335 381 364 336 320 308 304 300 295 291
389 386 378 384 351 343 331 328 321 302 317 313 301 298 287 278 282 283 287 293 299 306 311 322 348 399 391 390 404 397 387 374 374 367 365 340 384 362 341 325 318 309 305

GFSGL_2pvu_pres_012.txt.gz
Presure
190 195 197 186 188 199 204 198 215 217 228 252 251 265 267 263 284 367 505 486 465 478 491 480 443 414 387 371 366 362 363 368 381 372 362 286 370 396 408 408 414 418 425
202 192 186 200 203 201 213 209 226 240 248 251 267 246 265 286 455 502 478 458 415 436 416 402 378 363 353 355 358 360 362 363 368 371 95 357 359 360 374 394 404 412 413
198 204 203 203 210 210 222 216 221 249 247 261 263 267 313 422 501 472 436 394 385 401 381 361 349 349 350 352 352 357 363 378 432 435 435 443 388 361 363 367 378 393 404
206 204 203 215 213 221 221 231 250 244 262 267 275 352 463 495 458 413 386 371 397 375 357 349 351 351 346 359 357 381 414 412 415 423 426 429 433 444 404 367 365 373 383
207 203 209 216 220 221 218 244 245 260 245 279 343 443 490 460 407 381 362 358 380 358 349 357 344 345 360 357 408 399 387 394 422 455 447 439 434 437 449 447 370 365 367
208 211 215 214 223 217 228 248 265 257 256 361 462 477 466 399 375 356 381 370 361 348 355 341 334 364 342 372 391 377 382 397 455 472 464 448 440 442 456 470 437 369 363
208 212 224 219 211 210 247 263 277 314 293 461 454 469 414 380 364 365 375 364 352 349 349 330 339 334 348 400 367 359 374 389 471 487 467 460 464 464 478 469 450 390 365
204 223 219 224 209 246 261 229 282 325 344 445 469 438 384 368 356 369 366 348 346 347 332 339 341 325 412 375 347 337 349 378 480 484 478 446 459 486 469 449 446 424 366
222 212 227 233 250 258 231 268 327 348 443 445 451 388 369 363 364 369 352 347 339 330 336 341 339 350 402 356 336 335 332 339 493 473 450 466 473 461 444 439 441 424 414
221 233 242 255 262 229 264 322 345 457 452 438 398 372 360 359 371 361 349 330 328 325 339 340 345 352 395 347 333 345 354 353 333 476 456 474 484 457 446 447 452 431 419
230 244 258 253 237 259 288 333 457 447 452 415 378 376 368 372 366 342 333 320 324 337 337 341 347 349 390 340 330 337 338 356 363 324 329 463 464 483 468 459 450 441 432
241 239 258 268 259 291 323 426 423 391 434 392 366 382 365 371 326 331 310 325 333 343 342 346 346 346 387 336 332 336 344 339 341 358 348 337 331 384 389 386 354 341 342
198 259 272 268 276 326 426 409 399 407 414 376 369 366 374 322 327 307 319 340 337 339 339 349 342 347 386 335 329 330 347 348 352 346 346 349 355 353 353 351 354 360 363
261 211 283 330 319 330 416 396 386 437 394 365 389 369 323 324 306 324 334 337 339 341 344 344 344 353 383 337 327 329 340 336 339 347 356 357 357 353 352 353 352 360 362
205 287 275 325 315 344 386 380 387 421 380 361 378 331 325 305 313 326 322 322 328 331 342 348 355 353 336 357 323 326 330 321 320 322 329 330 331 334 344 353 340 337 336
284 272 323 321 338 389 382 368 432 407 370 357 371 320 314 297 310 310 311 312 314 320 335 355 348 344 344 381 326 326 328 320 328 327 333 331 329 327 326 329 323 312 305
271 325 320 338 390 379 404 366 421 391 366 352 332 320 306 295 309 302 302 304 304 309 316 336 368 362 360 341 354 319 331 320 323 324 321 307 304 302 299 293 293 293 299
324 318 318 390 375 416 443 432 413 373 358 349 323 321 303 302 297 297 297 298 297 301 310 316 343 365 364 351 370 332 322 322 321 315 302 297 301 297 287 287 287 286 288
316 308 402 378 361 448 430 420 398 361 357 345 321 320 302 298 294 293 293 290 292 294 301 312 318 365 363 366 340 374 322 327 322 307 303 286 286 288 280 274 281 289 286
306 362 328 371 353 429 412 407 386 352 351 340 322 317 301 301 290 290 290 288 287 290 294 299 314 322 389 370 368 338 374 319 322 317 294 291 285 273 283 278 275 279 286
408 329 369 364 360 413 403 401 374 347 344 333 323 313 306 300 291 288 283 287 285 284 291 295 302 314 335 388 377 368 338 375 320 321 314 296 281 285 277 275 279 277 282
351 365 355 354 418 407 405 398 362 343 335 341 324 315 322 293 299 287 280 280 282 282 286 295 300 314 323 396 397 392 368 347 363 338 314 317 303 284 280 279 279 278 274
367 349 345 349 409 397 404 389 359 344 337 334 329 316 316 310 297 298 287 277 282 283 284 294 298 311 317 343 410 408 408 372 365 344 368 315 318 307 294 279 285 278 277
350 341 338 342 406 390 381 388 365 344 339 332 332 320 293 318 312 300 297 283 282 289 284 294 297 310 320 335 419 410 393 370 380 386 346 361 359 310 321 305 293 284 287
347 331 322 335 406 384 376 371 374 349 341 331 328 324 299 296 321 314 307 298 290 292 289 295 298 312 323 332 388 417 411 407 406 408 385 374 344 370 357 314 320 305 300
334 326 321 354 345 388 372 369 376 360 343 332 330 328 315 304 307 323 326 323 317 294 297 297 303 316 322 327 350 413 407 417 425 413 396 381 386 368 350 369 360 326 313

GFSGL_2pvu_pres_015.txt.gz
Presure
209 203 200 178 184 180 198 198 200 196 214 219 242 249 259 246 258 271 286 318 459 465 421 399 381 403 391 375 367 366 371 371 380 372 376 366 364 369 371 373 372 291 431
204 197 193 179 194 193 196 196 199 209 214 252 251 267 262 244 263 283 322 485 459 414 391 372 390 384 366 360 359 363 353 363 375 363 362 427 202 438 377 374 371 373 388
192 185 193 188 195 204 205 196 201 229 245 251 264 249 241 258 285 354 474 454 410 385 376 382 381 365 356 358 349 339 362 354 375 411 392 390 396 412 435 175 389 372 373
194 188 192 209 211 229 208 222 223 247 250 257 262 267 265 287 359 461 456 413 384 371 366 379 368 356 355 346 337 351 339 414 391 375 375 390 404 455 458 443 438 445 374
191 192 218 210 212 228 223 234 236 251 251 261 278 282 365 470 441 455 415 383 366 363 383 368 355 357 338 340 353 340 398 386 355 356 357 412 455 477 478 461 442 435 448
195 207 219 216 222 225 236 240 252 251 259 274 299 277 335 421 453 421 388 367 373 378 369 355 349 335 338 344 346 355 397 356 340 340 349 483 478 480 468 462 450 440 433
215 218 216 220 222 227 239 253 252 262 266 303 282 340 424 401 429 396 377 368 377 370 355 338 332 332 350 343 360 392 364 347 357 346 342 494 502 481 468 463 462 448 437
217 212 199 226 235 243 257 246 264 274 292 273 360 408 398 436 401 379 370 378 368 340 334 320 337 343 356 352 350 391 349 338 354 367 338 479 462 455 459 464 458 463 473
214 219 226 233 242 254 248 255 291 285 268 333 397 396 384 411 381 384 373 371 337 320 326 333 345 349 362 361 362 366 338 342 341 358 349 337 459 478 482 485 465 463 463
219 227 231 244 254 246 262 303 273 269 322 370 395 384 427 391 379 369 377 339 319 322 337 341 344 346 358 363 371 351 332 344 351 341 360 330 410 488 493 447 436 433 438
226 229 243 260 255 267 289 255 276 288 347 395 383 384 408 376 379 371 331 315 332 337 336 338 343 350 352 362 379 348 329 345 355 347 350 352 331 403 474 447 440 437 433
227 245 257 256 253 258 270 263 281 332 342 381 414 431 390 394 373 333 319 311 328 324 328 333 340 352 356 359 374 344 327 347 346 351 346 348 352 332 337 448 446 442 437
251 264 249 246 254 249 268 279 328 385 388 374 444 413 375 347 354 322 309 314 317 313 318 320 335 369 360 364 366 343 325 338 333 337 355 344 352 356 340 333 373 461 447
261 228 239 253 269 280 272 323 356 368 377 448 432 396 365 375 328 317 305 315 304 307 307 315 319 345 370 370 354 364 324 333 328 325 333 343 357 343 349 350 344 338 336
213 240 248 261 276 270 324 351 345 384 369 441 419 383 354 373 326 312 305 304 296 299 301 305 314 320 373 370 347 378 327 330 321 329 327 325 330 348 346 342 347 357 363
275 289 268 281 267 326 318 335 382 373 437 433 404 372 347 370 317 310 304 299 295 292 296 297 301 314 324 382 376 360 360 323 325 325 331 331 324 326 339 343 347 350 338
259 261 276 276 331 319 336 381 370 362 430 421 390 361 347 326 316 308 301 295 293 292 291 292 296 299 316 335 382 357 371 322 329 322 329 323 320 325 325 326 329 338 319
287 286 314 340 325 331 396 370 358 357 417 412 380 355 345 323 312 312 300 293 290 290 289 287 290 297 300 317 367 389 353 366 328 321 319 310 305 303 305 300 301 298 301
273 311 336 323 321 394 373 348 350 401 414 404 370 347 345 329 321 314 302 300 287 286 283 287 286 291 301 304 321 396 390 355 327 326 319 302 298 298 294 293 292 290 293
327 335 319 322 411 390 352 345 341 410 413 399 369 343 342 336 321 309 320 293 297 286 281 280 287 288 293 299 312 332 402 389 361 324 321 310 294 297 294 286 282 279 281
326 317 328 425 354 371 348 341 334 372 400 397 368 342 335 333 329 320 311 319 296 293 292 281 285 289 289 296 306 323 372 407 390 362 325 320 304 292 294 280 282 279 281
317 336 378 379 387 361 343 335 334 368 383 388 369 343 337 329 333 324 312 310 316 308 299 296 283 293 289 296 302 320 336 427 415 400 360 326 320 305 292 289 284 276 281
354 398 417 392 373 350 337 331 326 368 379 374 381 355 339 331 328 324 318 301 313 318 314 310 305 300 294 299 303 322 331 440 426 409 406 356 336 324 309 294 289 285 282
351 391 393 373 359 344 332 328 319 349 381 368 368 375 349 334 326 325 319 310 304 306 325 329 327 319 297 301 304 324 325 359 429 422 400 377 376 362 323 318 304 295 286
396 387 388 365 349 332 328 319 318 349 378 371 376 373 364 343 327 322 320 316 316 325 337 335 327 325 299 303 310 323 324 341 428 420 433 419 394 400 359 365 320 318 306
377 369 381 359 346 332 322 315 316 351 337 387 346 346 338 361 338 328 324 326 332 340 338 333 320 300 300 306 316 323 321 336 400 418 419 429 424 421 391 397 357 366 320

GFSGL_2pvu_pres_021.txt.gz
Presure
200 196 208 221 217 214 217 216 205 195 190 185 195 206 215 239 249 271 271 264 232 273 281 294 344 417 400 433 403 389 383 393 394 372 361 366 360 360 365 371 374 375 318
199 206 210 219 217 225 211 208 196 191 192 199 210 233 241 249 262 262 266 277 315 299 297 360 411 399 427 397 386 385 382 372 359 357 337 346 358 367 368 378 416 403 312
197 205 210 216 223 215 206 198 199 203 209 216 235 238 261 257 251 218 246 292 301 290 355 401 426 428 394 382 386 371 349 342 335 353 356 367 376 377 423 386 376 370 368
204 210 212 227 216 210 206 199 206 212 219 240 241 258 272 253 207 261 304 296 274 394 400 456 433 400 378 382 345 340 333 352 357 360 355 371 372 413 371 364 360 363 369
207 213 228 215 209 200 203 205 215 225 240 254 268 234 231 235 286 304 288 324 364 399 440 439 409 380 363 340 332 349 353 353 356 363 363 371 411 365 357 358 361 366 374
223 229 211 204 202 206 210 216 229 240 254 260 234 232 245 282 289 306 350 337 407 380 450 418 386 360 337 336 345 343 352 368 369 365 368 397 361 348 352 361 370 373 364
220 204 199 201 206 210 224 233 243 253 249 195 234 249 276 283 292 276 335 427 383 429 429 398 368 338 328 329 328 330 340 365 376 368 369 364 346 351 361 367 367 367 341
198 201 207 209 213 225 232 260 252 234 202 225 260 272 298 288 272 334 351 400 368 445 412 384 345 325 311 320 314 323 333 394 372 366 393 346 343 352 362 365 370 352 336
203 204 209 219 226 236 256 244 231 225 234 264 280 299 279 267 348 323 428 378 358 429 403 358 331 317 316 311 310 307 329 360 386 368 354 341 339 351 360 363 361 342 488
207 214 223 231 242 253 240 232 224 220 265 280 287 267 272 345 321 361 400 366 443 411 392 350 322 310 315 305 305 307 315 336 380 382 344 339 331 335 358 363 360 345 450
214 223 245 249 235 236 234 240 231 261 282 292 254 264 334 316 331 405 382 356 428 392 386 341 318 307 303 302 299 298 306 323 378 388 340 334 330 329 343 361 357 351 440
235 246 247 261 238 255 257 255 271 266 264 261 265 342 320 318 364 400 373 347 411 379 379 336 315 306 303 302 295 292 298 311 362 384 345 332 328 329 335 355 359 343 442
239 255 243 219 215 259 247 254 276 290 323 317 339 319 320 345 414 381 358 350 397 369 376 330 313 304 301 295 292 291 291 302 317 379 349 334 326 331 327 345 353 342 431
258 242 219 248 252 269 269 255 306 260 275 346 312 317 345 376 398 368 347 413 385 362 345 339 316 305 295 286 286 282 291 291 306 356 383 338 326 332 329 332 354 347 362
245 232 231 251 257 299 295 322 330 283 331 318 322 345 387 407 378 357 339 406 377 352 339 360 317 305 293 294 287 287 283 292 296 314 375 344 329 330 329 329 353 351 336
237 254 255 267 276 327 309 291 326 320 324 325 357 383 410 384 360 346 335 402 373 349 338 334 315 311 299 292 290 290 289 290 291 305 358 366 330 329 324 329 347 347 348
256 262 262 291 262 290 319 328 319 330 338 353 366 402 385 369 350 335 336 393 371 347 334 338 322 314 312 310 294 293 294 290 293 297 319 379 334 327 320 325 330 344 347
275 256 272 284 323 326 330 338 346 359 367 403 395 389 378 354 339 326 369 388 372 351 336 332 334 323 310 306 310 312 306 304 298 294 310 387 357 326 318 319 319 322 333
301 321 323 332 339 345 353 361 371 392 391 402 391 386 360 345 332 321 351 370 378 358 342 332 332 327 316 303 293 310 317 316 311 296 306 326 385 330 321 314 318 324 328
341 364 361 360 359 360 363 361 390 396 379 392 367 364 356 335 328 318 342 372 367 369 347 334 328 323 320 313 310 304 310 323 324 312 303 321 405 373 323 311 310 321 320
372 369 369 368 362 361 407 381 376 365 371 372 380 368 351 333 324 314 326 344 360 374 357 339 328 323 320 314 310 310 324 331 324 302 304 323 333 427 335 319 303 310 293
386 371 350 348 397 391 385 377 371 372 383 375 361 363 349 333 320 313 306 337 349 336 376 346 331 320 315 313 314 325 337 332 310 299 305 323 322 457 418 329 314 300 297
349 348 367 392 383 388 389 375 398 374 352 360 352 360 351 333 320 317 306 333 331 346 336 366 341 328 320 320 323 338 337 323 299 300 306 323 318 337 453 411 327 313 301
366 384 391 385 390 365 347 341 340 362 367 358 349 341 357 338 324 317 305 303 334 325 337 334 343 340 329 325 334 335 303 296 298 301 308 324 316 327 397 455 415 328 316
406 387 382 371 349 338 337 336 339 335 328 329 379 360 355 348 329 318 316 289 307 331 323 370 331 310 324 328 329 308 308 300 302 305 315 321 311 324 339 445 454 451 333
380 372 351 341 338 337 338 354 354 365 355 343 338 380 363 354 339 325 315 310 288 308 329 321 347 318 311 313 315 299 294 296 305 311 321 312 305 319 332 389 435 441 444

GFSGL_2pvu_pres_024.txt.gz
Presure
196 194 193 192 196 197 204 220 233 229 213 207 205 207 218 216 232 259 257 248 227 225 207 299 309 365 353 408 396 448 426 403 406 391 355 351 349 348 347 346 352 373 373
195 190 196 200 198 203 224 236 214 202 203 205 216 219 225 235 253 252 240 238 223 277 331 278 362 353 413 387 452 425 397 396 356 346 336 359 362 366 370 375 371 382 385
190 191 197 198 204 219 220 202 200 203 205 211 215 227 237 256 242 234 230 218 267 307 267 310 362 407 390 414 427 393 365 346 351 355 354 358 368 372 369 375 376 380 413
194 197 196 201 219 226 201 203 202 215 213 215 227 247 262 242 237 264 261 272 289 283 288 348 329 406 378 431 397 363 343 335 334 334 340 358 382 374 371 373 404 377 365
194 195 201 219 222 205 205 203 210 219 217 232 252 249 234 233 256 262 273 271 312 319 350 326 364 395 453 406 375 343 332 329 320 325 342 384 380 373 370 391 366 357 351
188 205 216 226 206 203 206 210 216 216 246 256 248 232 225 258 271 268 284 302 316 323 342 339 413 383 435 395 351 334 325 320 314 318 336 385 388 367 377 356 356 362 366
202 208 233 222 203 207 209 215 218 240 248 253 234 225 241 256 282 303 302 302 315 333 326 378 394 370 416 369 341 323 314 309 311 312 335 406 368 379 350 347 349 367 362
210 233 221 203 205 210 218 223 235 257 261 243 227 245 265 285 264 292 316 311 315 320 349 412 377 435 402 357 331 318 310 306 303 307 326 377 396 356 347 345 344 355 366
237 217 202 209 215 214 226 253 254 260 251 238 264 272 252 280 274 297 323 307 321 335 414 390 362 414 398 348 324 314 307 303 300 299 315 361 395 352 341 336 340 355 369
213 205 211 216 207 239 250 254 269 244 227 260 263 271 264 254 319 320 308 327 339 364 404 371 383 393 388 345 323 311 302 299 295 295 309 329 395 352 339 338 338 349 367
205 213 217 222 248 256 257 250 253 248 253 251 267 284 289 308 311 323 346 336 382 408 380 359 409 376 379 341 322 310 300 296 291 295 297 313 383 356 336 334 343 347 365
214 216 236 257 246 264 237 231 253 252 259 277 302 306 308 318 329 331 335 382 390 387 363 348 394 370 364 341 321 308 296 293 292 291 293 307 352 380 341 334 344 344 362
221 242 249 245 262 247 254 255 257 263 290 319 325 320 335 342 340 337 386 405 379 367 350 352 381 361 345 366 322 310 303 299 293 294 300 301 317 385 339 334 341 341 364
242 251 250 270 248 247 260 268 266 316 317 331 343 340 341 343 370 393 410 393 372 352 337 399 374 356 342 358 322 314 305 301 299 299 295 293 308 385 339 333 336 339 362
249 252 264 260 253 260 266 293 324 270 337 345 345 354 364 373 403 405 390 385 356 337 330 393 371 351 339 337 323 314 311 311 307 316 303 300 306 380 343 331 333 337 351
253 265 249 263 260 265 282 272 340 358 364 375 366 368 362 404 393 396 390 366 348 331 338 386 369 349 338 335 330 321 313 311 313 316 315 311 300 328 356 330 328 330 350
256 252 258 261 262 276 359 383 378 366 374 358 347 403 390 378 369 380 369 356 339 325 338 371 374 354 340 331 336 326 319 304 299 317 319 316 301 320 379 331 324 325 336
261 252 263 295 337 390 389 383 385 367 347 359 389 381 372 368 367 368 365 350 334 323 321 359 374 361 343 331 332 328 320 313 313 307 325 322 302 317 397 340 324 321 325
262 272 277 401 401 397 382 360 347 356 382 388 379 377 375 370 373 382 366 346 331 322 308 352 353 370 345 331 327 324 319 315 310 317 332 327 300 317 330 376 327 318 317
280 402 407 403 387 371 351 363 371 387 386 387 387 367 389 363 361 359 362 346 332 325 307 335 348 365 352 334 327 322 319 317 317 333 335 322 301 318 323 421 338 318 312
407 403 392 380 368 361 373 379 394 386 381 377 346 336 337 371 360 347 360 351 335 323 309 319 332 338 372 337 325 318 315 319 328 339 333 305 301 313 320 390 397 326 310
398 388 374 368 372 380 385 389 377 375 368 344 333 332 333 325 330 356 340 355 338 322 318 302 331 324 335 361 333 322 319 323 338 337 323 298 301 308 322 323 456 344 318
383 371 368 376 389 395 377 366 358 342 335 334 333 329 305 335 337 329 357 351 348 331 321 302 310 325 366 334 340 333 325 326 337 331 300 301 302 308 322 314 336 454 332
376 374 386 394 386 367 347 331 341 347 348 348 350 343 346 352 344 340 373 361 357 338 322 312 294 319 322 368 327 311 321 327 323 308 304 301 306 315 322 310 325 368 460
378 397 388 374 349 358 398 391 381 373 370 367 358 352 347 339 336 339 327 375 358 348 331 318 300 292 320 321 362 316 311 313 313 307 292 291 303 317 325 307 315 333 445
394 384 357 369 393 436 462 463 459 456 411 374 361 351 343 339 336 332 334 326 353 352 342 327 314 296 292 310 321 314 309 311 310 306 293 291 301 321 319 303 316 330 339

GFSGL_2pvu_pres_027.txt.gz
Presure
194 206 212 198 205 198 195 198 195 198 206 229 227 207 201 211 214 217 227 258 256 244 248 254 249 290 328 313 318 332 337 403 467 427 388 359 356 353 352 358 366 374 372
210 218 202 197 194 194 193 195 197 205 210 230 221 206 209 214 217 229 262 263 240 255 265 254 270 263 308 320 316 349 345 422 436 388 350 339 340 336 341 356 375 390 391
216 205 197 193 191 192 195 202 204 213 234 214 205 211 217 218 236 258 258 248 250 264 237 274 305 317 309 310 324 347 411 446 412 362 334 332 326 324 331 366 402 396 385
200 194 192 193 194 196 202 199 212 236 217 206 209 216 222 251 263 254 249 237 254 262 316 288 309 309 315 336 342 407 394 423 377 345 331 320 319 319 338 410 399 388 377
190 191 195 196 195 203 195 209 239 216 210 217 218 248 262 203 249 239 249 271 258 315 324 294 304 305 335 374 428 394 436 408 359 332 319 314 309 313 337 378 382 408 363
195 196 202 196 208 199 216 233 211 208 219 217 255 276 250 269 260 267 272 278 288 315 317 309 319 313 340 353 398 374 419 388 346 325 315 307 306 304 330 398 391 357 348
199 197 204 204 217 223 229 210 214 219 236 252 260 258 253 251 258 269 269 318 283 301 307 324 336 364 347 408 384 382 408 372 339 319 309 304 303 300 323 401 363 353 345
205 200 211 211 237 216 209 216 224 248 254 261 266 258 251 257 265 266 279 312 307 324 342 351 350 382 355 386 366 405 394 365 334 320 310 303 298 296 314 414 362 346 346
205 209 223 242 215 214 217 237 249 258 251 263 252 251 265 267 279 298 327 338 333 351 355 352 420 351 384 370 355 389 380 354 330 316 306 301 294 297 309 370 371 345 341
210 244 225 213 214 220 238 250 254 243 259 259 250 269 265 286 325 329 341 362 360 359 381 406 378 394 372 355 397 375 365 353 327 318 306 296 300 304 308 328 371 347 342
242 217 210 222 218 239 248 256 257 262 253 254 264 283 291 331 341 348 363 373 388 381 367 409 388 372 356 345 383 365 351 355 328 316 309 307 305 305 305 319 369 345 347
217 213 224 226 237 248 251 258 262 257 261 263 277 297 349 351 367 377 373 369 386 404 388 390 379 355 345 341 375 362 346 366 329 317 308 306 303 305 304 314 374 343 342
214 222 225 235 247 251 256 268 249 259 270 331 347 362 376 377 383 380 381 345 392 378 393 382 360 344 337 390 370 354 343 353 328 321 317 314 313 323 314 312 369 341 340
223 226 235 248 256 260 270 248 259 259 344 355 385 385 389 396 371 348 388 381 369 375 386 367 351 335 334 382 369 351 341 340 332 321 318 320 320 324 320 311 370 340 336
229 238 248 256 248 270 268 260 270 332 394 393 398 392 370 349 360 385 384 376 369 367 360 360 344 331 328 371 367 349 339 337 333 324 316 294 318 328 327 310 375 339 333
240 241 255 259 267 256 259 268 361 407 410 394 373 355 352 376 394 388 378 377 376 385 369 354 338 327 321 348 371 352 339 336 333 325 320 313 318 330 331 308 387 340 329
244 258 256 265 267 259 261 335 415 400 381 368 363 371 373 386 386 383 378 354 369 383 372 350 335 323 317 347 373 355 342 333 331 325 320 320 311 333 328 309 375 346 329
256 253 264 269 259 266 273 407 399 390 375 368 365 374 382 384 379 371 342 334 364 364 366 351 334 323 314 337 335 362 342 331 326 322 318 316 329 336 312 310 328 366 331
269 263 273 270 275 277 406 403 386 377 374 377 379 378 372 369 369 347 334 333 325 352 350 357 336 327 312 331 338 367 345 332 325 321 319 320 341 333 305 315 328 399 337
261 265 269 277 283 408 402 389 382 380 389 391 373 355 351 339 332 331 332 330 345 320 351 362 344 329 315 308 337 334 350 332 323 319 322 336 340 328 304 310 325 356 362
260 272 278 353 409 405 391 381 382 391 388 363 346 336 335 339 338 334 330 327 343 348 331 348 354 331 321 306 327 329 365 337 327 320 324 345 338 307 303 306 324 324 407
276 285 400 412 407 391 380 384 391 385 355 355 385 383 378 374 368 359 349 344 340 345 336 351 357 341 325 310 305 323 336 351 334 328 327 338 328 302 305 306 325 318 426
286 351 415 409 392 382 396 388 374 356 400 306 463 459 426 371 363 359 355 348 344 341 343 326 358 351 328 320 304 321 351 336 324 320 329 328 309 307 304 310 323 318 322
420 420 400 391 385 397 381 390 393 389 304 395 379 389 454 449 384 359 352 345 342 338 336 336 328 357 338 321 309 295 320 343 327 314 319 321 308 297 292 301 319 319 310
412 399 392 412 395 390 385 400 386 304 391 372 354 346 340 337 431 435 369 351 340 335 332 331 330 347 354 331 316 300 293 315 315 311 309 316 313 297 292 292 312 323 303
399 396 405 393 382 394 401 389 329 371 384 367 350 344 339 335 347 337 332 409 363 344 335 329 331 326 348 348 328 312 297 294 309 315 313 310 308 307 299 302 326 319 296

GFSGL_2pvu_pres_030.txt.gz
Presure
192 196 208 206 215 210 204 202 195 196 192 199 202 205 218 233 225 214 212 223 245 248 257 253 249 253 261 274 322 329 323 320 324 333 385 393 443 416 374 353 343 339 337
199 207 207 186 195 196 192 194 194 199 201 203 211 217 231 215 211 217 232 254 253 260 261 247 270 266 291 331 328 319 321 324 351 388 419 416 421 382 355 339 332 332 328
203 212 214 200 193 191 195 194 201 203 208 215 241 221 210 211 223 255 262 244 263 260 247 260 289 303 299 320 324 322 334 357 410 417 397 435 398 362 339 329 321 320 319
200 196 191 191 193 194 192 204 208 211 243 229 214 207 213 249 255 259 259 257 255 261 276 310 292 318 327 332 328 360 378 413 379 397 381 417 376 347 329 317 314 316 313
191 182 198 201 191 204 206 209 212 223 223 209 212 220 252 255 272 254 257 263 266 283 323 331 325 335 340 352 381 418 395 367 396 376 420 402 361 338 322 316 312 310 313
199 189 193 205 203 204 208 211 217 233 203 221 234 248 253 271 261 258 258 253 291 334 332 338 338 347 356 413 404 360 407 393 377 363 399 391 352 332 321 313 305 305 310
188 192 199 200 207 203 213 217 233 209 221 233 247 257 266 259 250 263 272 291 341 337 341 345 369 395 390 388 364 408 393 376 364 365 380 371 344 326 316 307 307 303 308
193 207 202 205 205 213 219 230 209 229 240 242 251 263 263 252 260 256 272 330 345 359 374 387 395 383 354 395 401 385 377 363 355 387 372 366 338 322 313 303 302 303 309
206 191 205 206 212 220 231 205 229 241 237 247 255 260 256 252 256 269 289 359 375 386 398 391 361 353 401 393 386 375 360 350 389 374 359 361 339 320 312 307 303 304 309
186 206 208 213 224 237 203 225 238 236 241 257 261 258 252 266 266 285 371 397 402 395 378 356 375 384 368 389 379 357 346 348 375 364 351 368 338 320 312 310 309 311 310
208 209 215 216 218 193 228 237 237 239 256 264 261 256 263 267 284 391 402 401 386 364 356 395 387 389 386 376 360 346 338 388 369 354 343 365 341 324 318 313 317 337 323
206 216 208 235 196 229 233 238 239 256 262 245 253 259 276 304 388 406 393 372 362 367 388 388 377 375 370 362 353 338 331 381 365 349 338 343 333 321 319 321 324 327 321
217 206 235 195 227 234 236 243 248 261 257 246 269 276 327 393 402 392 373 366 373 380 386 377 377 373 374 361 346 333 329 379 367 348 339 336 328 324 320 316 326 328 313
207 232 220 225 235 234 243 248 258 261 253 269 277 285 396 405 392 377 373 374 377 383 373 370 349 368 375 360 342 330 325 359 368 347 337 337 330 324 316 305 332 335 318
235 223 223 239 238 245 247 246 261 255 264 275 280 396 409 395 379 372 373 379 385 371 376 343 336 366 376 355 341 328 321 340 370 349 336 336 326 321 316 317 332 329 335
224 221 237 238 248 247 248 260 273 275 273 292 409 410 400 389 378 375 379 377 365 366 359 334 333 329 367 355 341 330 319 338 362 348 336 331 325 321 320 318 342 312 338
215 239 239 249 248 248 263 272 281 267 291 408 402 399 390 381 376 379 376 356 342 335 332 334 329 329 321 357 340 330 318 336 337 352 337 328 326 321 320 340 333 304 328
241 246 248 247 251 263 273 271 274 299 422 411 401 389 374 377 381 374 352 338 332 330 329 327 326 331 321 359 344 331 319 320 333 357 339 328 325 323 325 345 316 304 327
248 248 251 256 265 261 268 282 296 427 425 417 398 380 384 385 368 345 364 376 372 360 349 340 338 320 335 341 350 335 321 312 332 360 336 328 322 324 346 338 307 304 327
253 256 259 268 264 273 283 301 433 424 406 395 390 394 382 355 378 310 391 389 376 371 364 355 344 333 338 331 355 340 326 313 328 333 342 330 322 325 347 329 303 304 326
260 260 268 257 277 290 314 434 415 400 392 396 397 383 358 397 354 297 393 448 416 368 361 355 348 339 345 330 350 345 329 317 308 334 358 336 329 329 343 317 304 306 326
267 263 274 282 302 364 420 412 398 394 404 388 381 386 405 373 302 376 357 346 445 380 358 350 347 341 338 334 325 353 332 319 307 324 332 341 329 330 335 310 305 311 328
262 277 286 295 428 420 410 396 402 390 381 380 385 399 391 341 388 369 348 338 335 415 369 354 345 338 333 335 328 354 335 320 308 305 351 322 313 327 326 307 301 301 318
275 288 333 427 419 405 402 406 383 381 393 399 390 395 380 367 385 368 348 338 333 343 340 368 351 339 334 329 329 324 348 325 314 303 315 324 309 308 321 312 295 291 300
292 365 421 411 400 412 394 383 389 391 400 396 400 381 369 358 365 366 350 339 334 328 324 332 382 353 339 331 325 324 355 337 322 309 295 312 318 308 307 311 307 294 293
422 412 407 410 403 386 407 397 408 403 405 392 374 365 386 413 400 375 355 339 335 332 326 317 314 387 358 340 328 325 322 348 331 320 307 292 304 315 311 309 307 306 306

GFSGL_2pvu_pres_033.txt.gz
Presure
191 192 194 189 192 200 204 197 195 193 200 196 195 206 206 211 222 231 217 213 224 238 261 260 253 248 249 251 269 336 343 342 339 347 353 405 414 421 388 365 399 421 406
197 184 190 199 206 200 195 190 199 194 191 196 206 211 214 220 234 213 214 245 236 255 260 261 258 255 258 284 343 354 351 356 377 420 408 376 369 396 422 393 381 411 369
187 198 202 207 189 190 193 202 183 192 196 208 204 214 221 232 211 208 238 234 266 258 259 256 257 272 309 347 355 367 399 414 410 394 374 409 412 398 385 372 415 378 350
194 198 201 193 187 188 197 177 182 202 194 204 214 219 217 211 222 218 239 267 263 249 263 272 279 327 339 365 412 422 406 383 366 389 399 410 394 379 367 418 389 362 342
197 195 186 191 180 197 204 202 202 197 204 214 213 219 213 226 243 245 261 265 262 257 270 278 296 342 364 423 413 391 370 384 414 406 391 384 368 363 408 405 375 345 336
201 183 191 197 186 198 203 195 205 203 215 214 233 218 200 244 245 248 254 260 255 265 274 291 345 363 421 401 382 366 400 393 378 388 378 364 354 396 387 389 360 343 329
188 196 199 193 203 200 194 206 202 216 215 233 221 205 243 241 243 248 262 268 265 268 288 333 367 413 394 377 372 402 393 393 401 383 357 350 375 379 368 371 361 340 328
195 197 198 204 202 187 208 203 216 216 227 226 214 243 240 242 246 259 260 268 267 284 313 354 408 392 375 375 400 390 387 387 381 365 351 346 381 367 354 360 351 335 324
194 203 201 205 181 206 203 215 217 230 227 219 239 241 242 241 250 260 263 262 277 315 347 402 395 379 376 388 389 377 377 377 367 355 344 366 374 360 347 363 347 333 320
197 205 202 182 210 203 214 220 226 229 221 235 243 240 244 249 256 259 257 278 302 340 394 396 384 374 383 391 383 382 377 374 364 347 338 371 374 355 342 361 342 331 318
205 199 185 209 204 214 218 225 236 222 235 244 243 240 249 254 260 257 267 293 342 394 395 389 377 378 388 379 371 351 383 376 358 339 333 373 366 354 346 341 326 321 318
198 201 210 203 214 215 225 234 222 236 243 242 243 247 256 258 254 267 304 340 392 398 391 381 370 379 374 377 348 341 380 371 352 336 328 375 362 347 343 335 327 323 315
203 209 205 215 211 227 233 221 237 240 241 246 247 257 255 254 275 311 343 408 400 396 384 370 372 373 353 369 341 336 379 366 349 333 322 361 362 342 341 337 326 322 316
208 211 216 207 226 225 220 237 237 242 245 248 256 260 262 276 283 346 414 407 400 391 371 370 372 361 342 355 331 337 331 363 348 335 321 339 362 344 339 331 324 319 321
214 216 218 224 222 222 237 240 248 247 252 258 261 265 278 281 364 423 413 407 389 372 378 378 363 338 330 326 326 330 337 363 350 336 320 336 366 343 333 324 322 323 327
216 223 226 220 225 242 232 257 250 252 259 259 266 280 287 367 433 425 404 388 377 383 383 352 337 339 351 342 331 327 326 338 353 338 321 332 370 343 329 325 319 322 352
223 213 222 230 246 236 257 255 254 258 252 264 270 290 433 424 415 402 390 391 387 379 352 383 296 375 372 356 342 333 328 333 355 339 324 322 360 344 329 321 324 348 336
228 226 234 240 238 260 258 254 261 260 272 275 287 434 417 405 394 391 394 385 385 389 386 309 377 387 372 362 350 339 333 336 352 341 327 317 334 342 329 321 327 349 322
227 233 239 244 262 263 256 265 267 272 285 296 442 422 403 395 400 390 378 397 392 397 367 304 361 425 374 361 354 344 335 336 340 342 329 318 329 351 332 324 339 345 305
222 241 250 262 265 260 268 273 273 285 384 438 417 402 404 408 382 377 374 390 389 379 382 367 346 353 380 360 350 345 335 339 327 345 330 318 321 362 336 327 340 332 302
241 254 260 269 268 270 274 276 290 367 422 413 405 410 390 381 398 381 392 370 379 375 394 360 348 335 386 360 347 344 335 339 328 353 331 318 310 332 344 329 338 323 300
259 264 272 270 275 277 290 295 358 423 422 417 400 381 391 393 389 396 392 399 375 362 372 364 342 342 330 363 350 341 333 337 331 353 335 320 308 336 327 321 334 316 303
267 275 274 278 278 289 305 425 431 422 406 388 400 434 428 408 404 400 401 385 361 355 343 362 349 328 333 324 355 343 333 331 332 325 343 323 312 312 332 313 328 318 309
275 276 277 280 291 346 435 428 414 393 401 420 440 431 419 409 401 387 369 362 364 366 355 371 347 335 324 323 328 349 340 330 329 325 352 328 317 304 320 318 309 317 311
278 273 283 299 327 430 416 417 454 412 418 436 435 426 405 388 374 375 439 432 425 412 394 379 355 337 328 325 311 312 350 338 327 326 328 337 320 309 298 318 315 308 308
277 289 300 346 422 419 406 475 438 413 436 432 417 395 375 396 421 397 383 378 375 380 385 378 363 341 332 317 314 314 321 352 335 324 324 345 329 318 306 292 313 315 311

GFSGL_2pvu_pres_036.txt.gz
Presure
195 192 200 198 197 195 186 184 190 200 202 190 183 189 193 196 203 206 214 224 225 234 214 242 247 247 252 268 263 272 290 324 329 425 427 407 391 379 382 395 407 429 422
206 198 193 199 203 188 189 199 202 189 188 195 191 192 198 207 200 207 222 228 233 224 244 246 247 250 263 269 264 283 312 334 435 417 394 386 413 424 420 418 411 404 396
193 195 195 191 195 196 205 202 189 191 192 198 193 204 210 215 207 221 227 231 224 219 250 244 249 261 265 263 294 313 327 395 415 398 392 413 398 388 389 400 388 379 373
195 191 196 201 201 202 196 185 190 192 193 197 199 209 193 206 217 223 237 223 227 249 244 249 252 264 260 277 310 320 390 411 398 388 416 400 411 406 397 380 363 361 402
195 198 201 198 196 196 189 183 194 190 201 198 206 210 205 214 222 238 225 235 246 244 248 250 262 261 274 285 326 356 409 401 384 404 393 388 392 383 369 364 359 393 384
197 194 196 194 200 189 182 192 191 207 198 209 210 210 210 219 237 222 236 244 241 248 249 262 263 278 276 323 343 408 401 388 398 392 392 385 380 368 356 351 394 380 371
192 194 191 200 194 186 193 196 207 196 210 206 214 215 223 239 217 235 239 245 246 250 257 266 269 278 305 346 387 398 393 375 392 385 371 386 374 360 346 345 379 373 367
196 199 193 199 185 194 193 205 195 208 206 214 216 222 218 219 234 235 249 249 250 254 258 264 276 291 345 384 400 395 380 383 380 368 355 391 373 351 340 369 373 361 357
198 189 198 196 193 184 206 198 206 210 214 216 223 217 213 228 238 235 254 249 257 255 261 273 284 341 354 401 398 388 368 382 381 352 347 386 365 344 338 384 368 356 356
196 194 200 194 190 204 203 207 211 214 216 220 220 218 220 237 232 258 251 257 258 254 273 280 323 399 406 398 393 375 373 374 375 346 340 381 359 340 337 386 358 352 347
194 203 195 198 203 202 210 209 214 216 217 222 221 219 233 237 255 255 253 257 260 268 278 319 421 410 403 394 378 372 378 362 355 334 339 375 358 340 338 386 356 348 345
201 198 203 204 209 206 206 214 216 220 220 227 219 228 233 247 262 257 257 265 275 283 307 425 412 405 391 377 372 383 377 343 327 330 335 350 359 340 334 361 354 348 339
205 201 205 211 205 206 215 217 223 223 227 220 220 230 246 262 260 261 268 282 285 297 428 414 396 380 376 379 382 376 340 300 337 331 327 338 360 339 328 359 353 343 335
203 207 211 207 212 217 217 225 226 226 219 217 230 251 263 264 262 272 278 282 341 429 414 395 383 376 385 389 370 346 359 319 352 338 330 330 360 341 325 354 352 341 334
214 212 218 217 217 217 226 226 229 219 222 234 252 266 270 268 274 279 292 406 430 414 399 384 388 387 380 375 387 380 293 375 361 344 334 330 356 342 325 333 353 336 328
218 218 220 221 218 226 229 226 226 219 240 253 258 272 273 276 280 294 434 421 407 401 402 402 383 376 386 390 379 370 377 373 361 347 335 333 351 343 326 329 352 333 325
217 225 224 220 225 235 226 232 215 241 251 252 262 268 270 287 291 381 420 411 406 405 391 377 378 388 391 382 363 366 357 380 360 349 337 337 341 345 325 325 349 332 322
228 223 225 227 236 226 232 232 253 255 266 267 268 272 274 295 432 429 422 414 400 375 377 396 381 388 387 377 387 356 336 380 359 348 341 336 335 345 324 320 349 333 321
227 229 234 233 228 234 246 257 258 269 276 278 282 293 314 436 438 413 398 390 384 399 394 371 388 394 381 374 365 359 335 377 358 347 341 336 332 345 324 318 359 337 323
232 238 228 224 236 250 262 269 271 282 280 289 306 439 439 425 409 399 398 410 425 420 393 392 377 389 372 367 361 349 335 374 355 346 337 337 329 345 325 314 360 341 328
240 227 242 246 258 267 275 277 287 282 293 306 440 438 415 406 448 421 418 435 432 415 402 392 382 389 364 349 356 344 333 370 352 345 335 335 329 347 326 311 332 345 331
246 242 248 265 272 275 287 272 284 300 312 443 352 412 391 458 423 422 436 429 420 410 399 392 379 359 349 348 352 339 329 322 354 345 333 333 328 352 328 311 322 323 327
250 259 273 257 288 269 273 283 301 317 436 419 404 398 379 416 397 429 419 404 388 377 369 358 360 361 365 362 356 347 328 323 322 349 334 328 329 358 330 314 309 330 317
272 262 276 286 260 269 288 300 320 428 410 398 398 383 368 396 419 402 382 366 426 426 421 425 432 432 409 397 383 351 333 324 317 358 339 328 329 330 338 320 305 320 316
268 283 262 257 278 293 301 333 432 409 386 404 392 370 368 419 387 368 360 385 356 354 369 375 351 355 395 398 381 362 334 326 322 309 353 335 325 322 350 325 313 301 319
274 258 264 290 291 315 412 413 403 402 382 368 388 375 361 399 375 362 374 360 433 429 473 435 501 476 352 359 384 366 342 329 317 315 313 348 331 324 330 341 320 307 299

GFSGL_2pvu_pres_042.txt.gz
Presure
197 198 202 206 204 200 195 199 196 206 198 194 194 197 193 196 195 198 200 200 203 206 194 207 202 214 218 227 228 227 232 235 234 245 260 278 275 282 285 334 432 431 412
208 206 206 206 206 196 195 204 205 194 196 198 193 192 195 197 197 198 198 198 207 194 205 200 211 215 220 228 228 235 230 230 245 257 258 276 276 281 297 434 423 422 401
216 212 202 210 207 207 207 212 198 197 192 191 194 195 197 194 194 203 196 203 196 203 200 213 218 222 224 228 229 236 236 241 254 258 274 277 281 290 357 423 420 399 400
206 209 225 215 211 213 201 198 199 193 192 192 195 196 192 200 201 202 202 197 203 206 217 223 220 221 226 229 238 235 236 246 260 277 276 280 290 369 424 417 400 390 394
206 215 224 213 214 198 197 199 193 189 194 194 186 195 196 198 204 197 202 196 205 220 221 217 225 221 227 238 226 230 243 264 276 276 280 287 393 425 414 398 388 392 383
202 223 221 217 212 200 193 190 191 185 191 198 194 201 200 202 196 203 201 213 216 220 218 223 223 226 236 232 231 241 264 276 276 278 284 435 420 412 393 387 384 392 357
220 231 232 214 191 194 191 190 192 194 195 199 201 202 201 203 204 206 218 216 225 220 226 226 226 234 234 230 241 263 275 272 269 279 424 416 409 395 386 384 387 393 344
251 235 199 195 194 193 193 197 199 201 201 202 199 202 202 206 212 213 221 227 222 227 228 227 231 237 230 243 264 276 278 267 276 401 419 406 393 386 385 387 388 352 340
203 202 200 197 199 202 201 198 200 196 199 197 201 203 210 214 216 227 229 222 231 228 229 228 235 229 251 266 278 281 268 274 405 409 405 394 386 388 386 383 371 358 337
199 200 199 197 199 200 198 195 203 194 201 205 213 214 221 230 232 229 225 230 228 231 225 231 237 258 276 280 284 263 271 413 415 410 398 389 391 385 372 375 384 380 311
200 200 201 199 198 198 202 199 207 211 212 217 227 226 229 233 237 232 234 238 232 227 228 244 264 285 280 277 262 279 431 421 410 408 401 395 378 366 375 379 376 377 367
203 203 205 205 206 211 211 211 215 220 222 222 224 225 226 237 242 236 227 230 226 236 258 256 279 280 261 267 371 433 423 409 404 396 382 365 368 386 375 379 367 369 368
217 217 214 211 214 217 219 223 216 217 215 216 224 227 235 239 224 225 228 228 245 257 254 276 265 277 279 440 430 418 398 380 383 380 370 368 381 372 386 360 365 375 366
214 219 211 209 219 209 214 218 217 228 215 220 227 235 233 243 247 231 248 246 246 255 275 264 270 331 455 429 403 395 380 392 395 380 378 387 374 354 358 369 387 374 361
228 216 193 215 206 216 208 215 213 217 230 234 227 238 250 255 246 251 249 252 268 266 271 312 340 444 424 401 392 382 438 417 395 385 391 372 373 376 399 356 339 370 356
233 229 228 223 211 245 245 256 247 256 244 236 249 255 250 248 252 257 255 274 263 273 321 368 441 419 404 394 382 450 419 400 396 396 384 365 373 373 370 352 338 364 349
237 239 237 238 239 255 249 272 238 239 251 254 249 242 253 256 252 258 272 261 273 329 350 446 413 398 394 388 375 398 411 418 415 394 376 370 364 364 360 345 366 358 346
237 240 252 257 249 262 232 234 247 250 240 241 253 254 248 255 268 264 265 287 344 368 433 436 408 396 385 379 435 430 420 406 402 387 371 372 363 357 348 339 361 352 344
248 236 243 244 257 261 255 253 242 240 250 254 248 254 265 260 261 276 324 356 380 427 413 424 404 383 383 371 389 373 389 409 393 387 367 369 354 349 343 351 356 347 340
220 260 262 256 255 251 247 245 246 255 246 250 260 267 253 264 280 313 365 445 421 400 416 403 388 375 390 374 374 362 353 361 350 388 377 368 345 342 337 346 350 342 337
242 245 258 241 245 252 254 253 252 250 252 263 253 258 267 288 314 425 432 416 405 399 398 383 376 416 389 381 376 365 447 391 379 362 347 363 338 339 334 323 348 336 334
232 236 242 252 259 255 247 255 252 262 261 251 266 269 292 316 431 363 421 403 388 396 388 375 407 399 385 386 378 362 351 345 348 335 372 353 343 336 333 322 346 335 332
241 240 248 259 248 247 250 260 259 251 260 271 277 293 321 354 419 415 400 384 391 385 381 373 386 439 434 406 382 367 352 342 383 365 340 384 363 342 336 322 345 335 331
240 255 252 253 242 253 261 260 263 262 276 287 296 327 413 418 411 392 376 390 384 423 392 397 419 442 420 402 384 373 354 390 415 391 357 371 382 358 341 322 340 334 331
249 235 241 249 253 259 261 263 266 279 297 300 341 426 415 401 380 364 389 384 462 446 417 394 450 426 405 391 374 390 400 437 389 406 371 343 385 365 340 322 339 337 331
259 245 251 256 263 264 268 276 289 302 315 348 416 410 395 374 372 384 383 466 451 430 408 423 431 412 384 357 400 396 422 442 388 403 385 349 386 364 336 325 313 341 331

GFSGL_2pvu_pres_045.txt.gz
Presure
221 224 221 208 194 195 199 197 203 207 202 193 200 201 200 214 196 190 192 194 198 192 197 192 201 205 207 209 207 224 225 227 234 231 238 238 243 243 256 276 289 290 279
202 203 205 211 201 202 206 209 204 198 205 206 204 202 214 192 193 190 189 193 192 195 192 199 209 207 206 214 222 218 225 234 229 239 231 240 243 256 278 295 294 271 294
208 211 212 203 216 223 212 207 203 201 206 205 209 200 196 192 187 185 194 196 192 193 202 212 207 209 217 219 216 226 235 230 238 241 242 242 265 274 299 290 274 292 433
225 217 216 206 208 209 209 207 218 214 212 205 210 199 188 186 189 194 193 189 198 206 206 208 204 217 214 220 235 236 232 240 245 241 240 265 270 292 284 272 290 431 414
249 236 211 206 207 212 205 205 214 219 221 196 191 189 191 193 190 195 199 205 202 206 205 210 216 217 233 239 242 244 245 240 240 243 267 263 283 276 276 302 403 416 401
205 209 212 210 205 211 216 218 225 228 226 194 193 191 193 201 197 201 204 203 208 204 215 216 232 227 231 246 243 240 231 232 239 263 262 275 272 300 324 412 410 405 398
201 201 203 211 211 225 237 236 231 200 199 198 198 200 198 203 203 204 207 206 214 217 223 223 236 232 238 242 237 233 233 240 259 253 276 270 290 340 418 412 407 401 396
199 203 205 203 202 201 199 196 194 195 196 200 204 203 199 202 204 210 214 222 224 220 217 221 229 238 232 243 251 254 257 254 255 275 271 297 373 416 415 411 405 400 392
208 209 209 206 205 203 203 204 203 198 203 203 204 205 206 213 216 222 223 215 218 211 230 240 227 231 241 253 253 249 252 255 274 273 297 432 427 412 397 389 391 396 368
213 209 210 208 206 205 203 204 204 202 205 212 212 210 212 217 223 206 217 205 217 245 228 229 231 244 250 246 249 253 261 271 271 333 433 425 409 393 374 380 376 366 368
218 215 212 211 212 212 209 208 213 215 207 213 208 204 222 215 201 222 242 263 257 242 233 240 248 249 250 254 256 266 262 320 351 437 417 397 380 382 365 383 376 367 382
217 213 212 212 217 214 214 214 209 203 210 223 211 231 229 241 242 258 257 244 234 247 248 242 249 250 257 262 265 284 365 384 435 419 401 383 372 368 393 393 376 383 366
219 218 217 217 216 217 222 225 230 233 240 235 234 249 255 246 253 240 231 249 247 240 246 245 251 262 259 266 300 398 451 433 409 394 392 379 439 417 401 385 383 379 366
228 230 235 245 238 235 238 245 247 253 246 238 234 234 246 262 236 253 252 242 243 248 245 254 257 262 274 315 468 447 441 413 409 390 384 379 417 397 384 384 386 368 372
226 233 229 227 241 240 239 227 224 220 215 240 250 261 260 254 259 257 250 240 248 257 264 248 271 278 325 465 438 424 436 416 396 378 405 411 394 390 390 390 373 370 364
225 250 244 237 233 229 221 218 214 218 234 247 241 244 254 265 252 239 243 254 264 254 261 272 278 324 460 441 416 412 412 393 380 376 432 420 415 403 392 377 370 361 362
223 214 225 227 210 213 210 216 192 222 240 241 243 247 250 231 242 247 254 260 272 264 274 285 322 423 442 418 397 399 387 376 366 381 373 357 410 393 381 369 366 358 353
206 212 220 213 201 200 196 220 225 231 245 234 242 237 242 242 261 253 252 262 265 275 289 322 413 440 419 391 397 390 374 395 393 386 365 359 343 388 374 369 361 351 343
230 228 215 203 210 234 235 232 228 239 245 239 249 262 249 267 254 254 260 268 275 290 314 412 431 416 381 383 392 382 368 408 390 395 362 389 366 383 371 369 353 343 336
222 207 219 215 228 230 242 229 235 252 231 253 269 240 271 258 251 258 271 277 289 315 434 425 409 384 384 397 385 382 378 382 379 390 364 377 371 363 360 367 343 339 332
242 225 218 231 229 238 228 241 250 225 250 270 257 264 251 251 263 272 281 286 310 432 420 403 384 388 399 424 447 412 384 439 416 388 367 353 340 334 359 356 337 336 330
219 229 231 228 238 239 242 237 238 268 275 263 258 242 261 266 278 284 288 313 424 419 401 388 385 395 482 461 432 404 407 431 414 392 367 359 338 348 335 359 344 336 328
227 228 226 232 233 237 234 254 250 243 257 244 256 264 264 287 282 291 323 420 413 398 388 384 391 410 466 441 415 393 434 415 401 383 369 362 341 379 352 350 357 340 329
230 220 237 249 242 246 255 241 262 260 255 267 260 281 282 281 302 381 414 409 395 389 389 392 405 474 449 423 402 438 417 399 387 378 365 352 391 395 364 340 369 347 332
239 249 235 253 255 253 261 250 249 275 264 277 276 279 296 324 415 417 399 398 396 394 396 406 479 457 434 413 435 419 405 385 356 352 382 384 378 398 370 345 376 357 332
238 258 255 241 233 241 256 266 251 277 278 275 293 310 411 419 412 406 411 408 402 402 409 452 462 442 432 434 417 395 366 350 412 392 386 452 398 384 376 347 377 363 330

GFSGL_2pvu_pres_048.txt.gz
Presure
227 228 223 223 224 218 215 213 210 211 196 201 204 211 212 207 205 206 202 202 203 201 194 187 196 195 188 208 202 203 218 225 233 232 219 228 231 248 241 254 263 268 257
210 213 201 206 200 198 193 197 193 203 199 203 213 213 194 208 204 201 203 207 198 193 192 193 192 203 197 202 210 222 225 234 225 226 221 241 230 241 252 262 259 259 265
201 199 220 213 201 203 210 211 209 207 211 210 206 200 194 216 202 221 225 222 215 211 191 202 199 201 203 216 222 227 225 222 216 232 254 246 241 253 259 255 265 263 269
215 197 194 197 209 227 219 212 211 206 205 206 204 205 206 210 215 218 206 211 224 203 194 201 205 212 221 223 226 216 217 211 245 257 247 248 254 254 257 267 269 281 289
209 206 206 217 214 220 206 210 214 212 207 210 216 215 225 236 214 210 197 194 197 204 206 214 219 221 220 223 215 209 255 258 244 247 251 258 254 260 268 279 282 306 368
206 208 206 206 204 204 206 212 211 216 205 205 201 202 202 203 208 197 203 204 211 214 201 207 219 220 214 232 262 262 234 238 237 249 254 255 251 269 273 288 339 379 438
216 210 209 208 208 208 205 205 204 204 203 204 202 202 195 206 206 208 213 210 200 214 202 219 218 248 245 252 247 228 242 250 247 250 251 254 265 274 289 364 432 420 415
225 222 220 216 213 210 208 206 205 202 200 201 207 207 208 216 210 211 216 206 214 227 239 249 246 243 239 254 248 251 246 242 247 249 263 263 282 301 440 430 418 407 398
243 236 232 226 223 221 220 218 218 218 218 221 224 212 213 214 208 220 240 247 243 230 252 246 215 249 254 252 243 240 240 254 265 257 257 285 336 442 433 418 403 394 378
246 241 235 229 228 226 226 224 223 218 215 215 215 216 222 236 248 233 212 215 223 237 226 222 225 226 225 236 249 245 252 253 252 278 290 372 442 423 409 401 388 384 383
252 244 200 229 228 225 224 223 218 216 219 226 235 237 244 222 215 214 218 217 226 237 231 221 246 245 238 257 249 251 254 269 276 293 440 447 423 425 409 397 386 380 376
217 235 240 239 236 228 224 228 233 227 230 231 234 248 215 215 213 214 211 207 211 236 256 260 255 242 262 250 250 254 268 278 291 466 455 426 412 417 399 388 374 371 411
218 233 213 242 250 246 234 231 231 246 245 250 220 214 213 222 200 196 217 248 233 256 265 261 250 257 247 248 259 267 279 287 330 457 426 407 405 396 385 373 416 406 389
213 205 223 205 248 228 221 212 221 212 216 209 201 204 199 212 194 217 194 239 252 267 259 254 255 239 260 256 265 279 286 317 454 427 391 407 391 379 368 369 422 408 395
224 204 220 214 234 241 230 225 225 213 209 214 216 205 203 219 192 244 240 253 251 236 247 251 239 263 256 265 278 287 310 445 425 392 390 398 378 373 381 376 363 410 397
207 207 221 216 224 247 238 217 209 204 210 198 227 230 230 233 237 241 251 243 234 255 259 248 264 260 270 278 288 307 437 418 392 383 400 386 374 401 389 370 359 365 387
202 222 220 224 241 248 249 198 205 232 214 229 230 227 232 251 238 255 252 261 245 253 240 272 260 267 276 290 308 436 411 395 387 396 396 391 373 396 384 363 375 389 376
197 222 228 222 218 260 230 246 213 228 233 237 229 236 239 235 255 248 232 234 244 251 267 253 277 272 289 305 431 414 402 394 393 418 454 423 374 377 378 361 383 380 371
219 227 227 225 231 230 232 224 249 233 233 230 230 248 235 250 228 233 243 257 273 258 258 273 269 287 302 432 420 410 401 400 405 464 442 415 377 376 379 361 380 371 371
223 229 228 222 227 247 230 223 229 230 233 241 241 239 238 233 235 244 269 250 250 270 263 272 285 300 405 423 419 412 405 406 475 449 424 403 374 396 376 361 351 333 368
226 234 216 224 230 244 228 230 230 237 243 238 239 241 226 229 264 272 245 255 268 264 282 289 302 433 421 427 403 417 413 445 459 431 408 391 433 395 380 357 345 335 357
227 235 232 226 242 231 231 238 244 214 236 239 239 240 256 271 251 247 263 257 276 282 293 310 431 413 389 376 410 423 428 466 443 417 397 427 419 401 373 359 347 333 334
240 226 233 234 227 238 233 224 210 239 241 238 252 225 255 238 263 258 261 280 285 294 333 423 404 390 385 390 435 435 469 448 431 409 433 414 404 387 370 359 351 333 347
235 239 218 236 240 239 213 235 245 240 244 261 241 250 247 262 272 268 293 297 304 384 408 399 390 398 443 446 444 469 455 436 434 435 422 399 387 377 368 362 344 380 361
229 235 244 245 238 233 245 243 247 248 248 257 251 264 260 258 294 293 294 348 416 405 399 412 407 460 458 453 465 454 438 434 432 419 405 387 357 340 352 358 374 389 363
246 241 216 233 241 239 243 255 239 260 261 257 275 270 277 299 298 321 419 408 404 418 413 401 406 466 456 463 452 438 433 428 415 398 377 344 365 393 382 375 373 385 364